Regional Weather Roundup
Issued by NWS

Home | Current Version | Previous Version | Graphics & Text | Print | Product List | Glossary On
Versions: 1 2 3 4 5 6 7 8 9 10 11 12 13 14 15 16 17 18 19 20 21 22 23 24 25 26 27 28 29 30 31 32 33 34 35 36 37 38 39 40 41 42 43 44 45 46 47 48 49 50
000
ASUS43 KTOP 250708
RWRKS

WEATHER ROUNDUP FOR KANSAS
NATIONAL WEATHER SERVICE GOODLAND KS
100 AM CST SUN FEB 25 2018

NOTE:  "FAIR" INDICATES FEW OR NO CLOUDS BELOW 12,000 FEET WITH NO
SIGNIFICANT WEATHER AND/OR OBSTRUCTIONS TO VISIBILITY.

KSZ001>006-013>018-027>032-041>047-250800-
NORTHWEST KANSAS

CITY           SKY/WX    TMP DP  RH WIND       PRES   REMARKS
GOODLAND       PTCLDY    19  11  70 SW8       29.91R
HAYS           CLEAR     21  12  68 SW9       29.98R
HILL CITY      CLEAR     20  12  71 W6        29.95R
RUSSELL        CLEAR     22  14  71 SW9       29.96R
$$

KSZ061>065-074>080-084>089-250800-
SOUTHWEST KANSAS

CITY           SKY/WX    TMP DP  RH WIND       PRES   REMARKS
DODGE CITY     CLOUDY    24   7  48 E5        29.98R
ELKHART        CLEAR     22  19  87 SE9       29.87F
GARDEN CITY    CLOUDY    21   5  50 E9        29.96R
GREAT BEND     CLEAR     22  15  75 SW10      30.00  WCI  11
LIBERAL        CLEAR     27  17  66 NE8       29.94S
PRATT          CLEAR     24  13  64 N5        30.00S
$$

KSZ066>073-081>083-090>101-250800-
SOUTHEAST KANSAS

CITY           SKY/WX    TMP DP  RH WIND       PRES   REMARKS
CHANUTE        CLEAR     33  29  85 SW7       30.01R
COFFEYVILLE    CLEAR     30  29  96 CALM      30.01S
HUTCHINSON     CLEAR     20  19  96 CALM      30.00R
MEDICINE LODGE   N/A     27  22  81 N3        29.99R
NEWTON         CLEAR     26  24  92 SW5       30.01R
PARSONS        CLEAR     28  28 100 CALM      30.02R
WICHITA INTL   CLEAR     28  25  88 NW8       30.00S
WICHITA JABRA  CLEAR     31  28  89 NW8       30.00S
WICHITA MCCONL CLEAR     28  27  94 N8        30.00R
WINFIELD       CLEAR     28  27  96 SW7       30.01R
$$

KSZ007>012-019>026-033>040-048>060-102>105-250800-
NORTHEAST KANSAS

CITY           SKY/WX    TMP DP  RH WIND       PRES   REMARKS
CONCORDIA      CLEAR     25  17  72 W5        29.93S
EMPORIA        CLEAR     28  23  81 W6        29.99R
LAWRENCE       CLEAR     33  27  78 W10       29.96R WCI  25
MANHATTAN      CLEAR     27  20  75 SW5       29.98R
MARYSVILLE     CLEAR     28  21  74 CALM      29.94R
OLATHE IND     CLEAR     30  28  92 SW8       29.97R
OLATHE EXE     CLEAR     31  29  92 W9        29.96R
SALINA         CLEAR     28  21  75 SW9       29.99R
TOPEKA BILLARD CLEAR     33  28  81 W7        29.98R
TOPEKA FORBES  CLEAR     30  26  85 W10       29.97R WCI  21
$$




USA.gov is the U.S. government's official web portal to all federal, state and local government web resources and services.